Time,TemperatureF,DewpointF,PressureIn,WindDirection,WindDirectionDegrees,WindSpeedMPH,WindSpeedGustMPH,Humidity,HourlyPrecipIn,Conditions,Clouds,dailyrainin,SoftwareType,DateUTC
2013-05-24 00:01:00,63.0,63.0,29.41,SSW,207,0.3,2.3,100,0.01,RA,SCT,0.00,WeatherDisplay:10.37,2013-05-24 04:01:00,
2013-05-24 00:02:00,63.0,63.0,29.41,SW,226,0.4,2.3,100,0.01,RA,SCT,0.00,WeatherDisplay:10.37,2013-05-24 04:02:00,
2013-05-24 00:07:00,63.0,62.7,29.41,SW,215,0.0,0.0,99,0.01,RA,SCT,0.00,WeatherDisplay:10.37,2013-05-24 04:07:00,
2013-05-24 00:12:00,62.9,62.6,29.40,SE,128,1.8,4.6,99,0.01,CLR,SCT,0.00,WeatherDisplay:10.37,2013-05-24 04:12:00,
2013-05-24 00:17:00,62.9,62.6,29.40,West,261,0.2,2.3,99,0.01,CLR,SCT,0.00,WeatherDisplay:10.37,2013-05-24 04:17:00,
2013-05-24 00:22:00,62.9,62.6,29.40,South,186,0.0,1.1,99,0.00,CLR,SCT,0.00,WeatherDisplay:10.37,2013-05-24 04:22:00,
2013-05-24 00:27:00,62.9,62.6,29.40,South,186,0.0,1.1,99,0.00,CLR,SCT,0.00,WeatherDisplay:10.37,2013-05-24 04:27:00,
2013-05-24 00:32:00,62.9,62.6,29.39,East,90,0.2,2.3,99,0.00,CLR,SCT,0.00,WeatherDisplay:10.37,2013-05-24 04:32:00,
2013-05-24 00:37:00,62.9,62.6,29.39,WSW,252,0.7,2.3,99,0.00,CLR,SCT,0.00,WeatherDisplay:10.37,2013-05-24 04:37:00,
2013-05-24 00:42:00,62.9,62.6,29.39,WSW,244,0.2,1.0,99,0.00,CLR,SCT,0.00,WeatherDisplay:10.37,2013-05-24 04:42:00,
2013-05-24 00:47:00,62.9,62.6,29.39,WSW,244,0.1,1.1,99,0.00,CLR,SCT,0.00,WeatherDisplay:10.37,2013-05-24 04:47:00,
2013-05-24 00:52:00,62.9,62.6,29.39,SW,236,0.5,2.3,99,0.00,CLR,SCT,0.00,WeatherDisplay:10.37,2013-05-24 04:52:00,
2013-05-24 00:57:00,62.9,62.6,29.38,SE,132,0.4,2.3,99,0.00,CLR,SCT,0.00,WeatherDisplay:10.37,2013-05-24 04:57:00,
2013-05-24 01:02:00,62.9,62.6,29.38,SE,132,0.1,1.1,99,0.00,CLR,SCT,0.00,WeatherDisplay:10.37,2013-05-24 05:02:00,
2013-05-24 01:07:00,62.9,62.6,29.38,SSE,159,0.4,1.1,99,0.00,CLR,SCT,0.00,WeatherDisplay:10.37,2013-05-24 05:07:00,
2013-05-24 01:12:00,62.9,62.6,29.38,ENE,70,0.2,1.1,99,0.00,CLR,SCT,0.00,WeatherDisplay:10.37,2013-05-24 05:12:00,
2013-05-24 01:17:00,62.9,62.6,29.37,WNW,298,0.6,2.0,99,0.00,CLR,SCT,0.00,WeatherDisplay:10.37,2013-05-24 05:17:00,
2013-05-24 01:22:00,62.9,62.6,29.37,WNW,298,0.0,0.0,99,0.00,CLR,SCT,0.00,WeatherDisplay:10.37,2013-05-24 05:22:00,
2013-05-24 01:27:00,62.8,62.5,29.37,West,261,0.4,1.1,99,0.00,CLR,SCT,0.00,WeatherDisplay:10.37,2013-05-24 05:27:00,
2013-05-24 01:32:00,62.8,62.5,29.37,WSW,245,0.2,1.1,99,0.00,CLR,SCT,0.00,WeatherDisplay:10.37,2013-05-24 05:32:00,
2013-05-24 01:37:00,62.8,62.5,29.37,WSW,257,0.0,1.0,99,0.00,CLR,SCT,0.00,WeatherDisplay:10.37,2013-05-24 05:37:00,
2013-05-24 01:42:00,62.7,62.4,29.37,WSW,257,0.0,1.1,99,0.00,CLR,SCT,0.00,WeatherDisplay:10.37,2013-05-24 05:42:00,
2013-05-24 01:47:00,62.7,62.7,29.36,WSW,257,0.3,1.1,100,0.00,CLR,SCT,0.00,WeatherDisplay:10.37,2013-05-24 05:47:00,
2013-05-24 01:52:00,62.7,62.7,29.36,WSW,255,0.1,1.1,100,0.01,RA,SCT,0.01,WeatherDisplay:10.37,2013-05-24 05:52:00,
2013-05-24 01:57:00,62.6,62.6,29.36,WSW,255,0.2,1.1,100,0.01,RA,SCT,0.01,WeatherDisplay:10.37,2013-05-24 05:57:00,
2013-05-24 02:02:00,62.5,62.5,29.36,WSW,254,0.1,1.1,100,0.01,,SCT,0.01,WeatherDisplay:10.37,2013-05-24 06:02:00,
2013-05-24 02:10:00,62.1,61.8,29.37,WNW,294,0.0,3.5,99,0.05,RA,SCT,0.05,WeatherDisplay:10.37,2013-05-24 06:10:00,
2013-05-24 02:15:00,62.0,62.0,29.37,NE,42,0.1,1.1,100,0.05,RA,SCT,0.05,WeatherDisplay:10.37,2013-05-24 06:15:00,
2013-05-24 02:20:00,61.8,61.5,29.36,North,351,0.3,0.0,99,0.05,RA,SCT,0.05,WeatherDisplay:10.37,2013-05-24 06:20:00,
2013-05-24 02:25:00,61.7,61.4,29.36,North,351,0.0,0.0,99,0.05,CLR,SCT,0.05,WeatherDisplay:10.37,2013-05-24 06:25:00,
2013-05-24 02:30:00,61.6,61.3,29.36,North,355,0.0,0.0,99,0.05,CLR,SCT,0.05,WeatherDisplay:10.37,2013-05-24 06:30:00,
2013-05-24 02:35:00,61.6,61.3,29.36,North,355,0.2,1.1,99,0.05,CLR,SCT,0.05,WeatherDisplay:10.37,2013-05-24 06:35:00,
2013-05-24 02:40:00,61.4,61.1,29.36,North,355,0.0,0.0,99,0.05,CLR,SCT,0.05,WeatherDisplay:10.37,2013-05-24 06:40:00,
2013-05-24 02:45:00,61.4,61.4,29.36,North,355,0.0,0.0,100,0.05,CLR,SCT,0.05,WeatherDisplay:10.37,2013-05-24 06:45:00,
2013-05-24 02:50:00,61.3,61.3,29.36,North,355,0.0,1.1,100,0.05,CLR,SCT,0.05,WeatherDisplay:10.37,2013-05-24 06:50:00,
2013-05-24 02:55:00,61.1,61.1,29.35,North,355,0.0,0.0,100,0.05,CLR,SCT,0.05,WeatherDisplay:10.37,2013-05-24 06:55:00,
2013-05-24 03:00:00,61.0,60.7,29.34,North,355,0.0,0.0,99,0.04,CLR,SCT,0.05,WeatherDisplay:10.37,2013-05-24 07:00:00,
2013-05-24 03:05:00,60.9,60.6,29.34,North,355,0.0,0.0,99,0.04,CLR,SCT,0.05,WeatherDisplay:10.37,2013-05-24 07:05:00,
2013-05-24 03:10:00,60.9,60.6,29.34,North,355,0.0,0.0,99,0.00,CLR,SCT,0.05,WeatherDisplay:10.37,2013-05-24 07:10:00,
2013-05-24 03:15:00,60.8,60.5,29.33,North,355,0.2,1.1,99,0.00,CLR,SCT,0.05,WeatherDisplay:10.37,2013-05-24 07:15:00,
2013-05-24 03:20:00,60.7,60.7,29.33,North,355,0.0,0.0,100,0.00,CLR,SCT,0.05,WeatherDisplay:10.37,2013-05-24 07:20:00,
2013-05-24 03:25:00,60.7,60.7,29.33,North,355,0.0,0.0,100,0.00,CLR,SCT,0.05,WeatherDisplay:10.37,2013-05-24 07:25:00,
2013-05-24 03:30:00,60.6,60.6,29.32,North,355,0.0,0.0,100,0.00,CLR,SCT,0.05,WeatherDisplay:10.37,2013-05-24 07:30:00,
2013-05-24 03:35:00,60.6,60.3,29.32,North,355,0.0,0.0,99,0.00,CLR,SCT,0.05,WeatherDisplay:10.37,2013-05-24 07:35:00,
2013-05-24 03:40:00,60.5,60.2,29.32,North,355,0.2,0.0,99,0.00,CLR,SCT,0.05,WeatherDisplay:10.37,2013-05-24 07:40:00,
2013-05-24 03:45:00,60.4,60.1,29.31,North,355,0.0,0.0,99,0.01,RA,SCT,0.06,WeatherDisplay:10.37,2013-05-24 07:45:00,
2013-05-24 03:50:00,60.3,60.0,29.31,North,355,0.0,1.0,99,0.01,RA,SCT,0.06,WeatherDisplay:10.37,2013-05-24 07:50:00,
2013-05-24 03:55:00,60.2,60.2,29.31,North,355,0.0,0.0,100,0.01,CLR,SCT,0.06,WeatherDisplay:10.37,2013-05-24 07:55:00,
2013-05-24 04:00:00,60.0,60.0,29.31,North,355,0.0,0.0,100,0.01,CLR,SCT,0.06,WeatherDisplay:10.37,2013-05-24 08:00:00,
2013-05-24 04:05:00,60.0,60.0,29.31,North,355,0.0,0.0,100,0.01,CLR,SCT,0.06,WeatherDisplay:10.37,2013-05-24 08:05:00,
2013-05-24 04:10:00,59.9,59.9,29.31,North,355,0.0,0.0,100,0.01,CLR,SCT,0.06,WeatherDisplay:10.37,2013-05-24 08:10:00,
2013-05-24 04:15:00,59.9,59.6,29.31,North,355,0.0,0.0,99,0.01,CLR,SCT,0.06,WeatherDisplay:10.37,2013-05-24 08:15:00,
2013-05-24 04:20:00,59.9,59.6,29.31,North,355,0.0,0.0,99,0.01,CLR,SCT,0.06,WeatherDisplay:10.37,2013-05-24 08:20:00,
2013-05-24 04:25:00,59.8,59.5,29.31,North,355,0.0,0.0,99,0.01,CLR,SCT,0.06,WeatherDisplay:10.37,2013-05-24 08:25:00,
2013-05-24 04:30:00,59.7,59.4,29.31,North,355,0.0,0.0,99,0.01,CLR,SCT,0.06,WeatherDisplay:10.37,2013-05-24 08:30:00,
2013-05-24 04:35:00,59.7,59.4,29.31,North,355,0.0,0.0,99,0.01,CLR,SCT,0.06,WeatherDisplay:10.37,2013-05-24 08:35:00,
2013-05-24 04:40:00,59.7,59.4,29.32,North,355,0.0,0.0,99,0.01,CLR,SCT,0.06,WeatherDisplay:10.37,2013-05-24 08:40:00,
2013-05-24 04:45:00,59.6,59.3,29.32,North,355,0.0,0.0,99,0.00,CLR,SCT,0.06,WeatherDisplay:10.37,2013-05-24 08:45:00,
2013-05-24 04:50:00,59.6,59.6,29.32,North,355,0.0,0.0,100,0.00,CLR,SCT,0.06,WeatherDisplay:10.37,2013-05-24 08:50:00,
2013-05-24 04:55:00,59.5,59.5,29.33,North,355,0.0,0.0,100,0.00,CLR,SCT,0.06,WeatherDisplay:10.37,2013-05-24 08:55:00,
2013-05-24 05:00:00,59.5,59.5,29.33,North,355,0.0,0.0,100,0.00,CLR,SCT,0.06,WeatherDisplay:10.37,2013-05-24 09:00:00,
2013-05-24 05:05:00,59.6,59.6,29.34,North,355,0.0,0.0,100,0.00,CLR,SCT,0.06,WeatherDisplay:10.37,2013-05-24 09:05:00,
2013-05-24 05:10:00,59.7,59.4,29.34,North,355,0.0,0.0,99,0.00,CLR,SCT,0.06,WeatherDisplay:10.37,2013-05-24 09:10:00,
2013-05-24 05:15:00,59.8,59.5,29.34,North,355,0.0,0.0,99,0.00,CLR,SCT,0.06,WeatherDisplay:10.37,2013-05-24 09:15:00,
2013-05-24 05:20:00,59.8,59.5,29.34,North,355,0.0,0.0,99,0.00,CLR,SCT,0.06,WeatherDisplay:10.37,2013-05-24 09:20:00,
2013-05-24 05:25:00,60.0,60.0,29.34,North,355,0.0,0.0,100,0.00,CLR,SCT,0.06,WeatherDisplay:10.37,2013-05-24 09:25:00,
2013-05-24 05:30:00,60.1,60.1,29.34,North,355,0.0,0.0,100,0.00,CLR,SCT,0.06,WeatherDisplay:10.37,2013-05-24 09:30:00,
2013-05-24 05:35:00,60.2,60.2,29.34,North,355,0.0,0.0,100,0.00,CLR,SCT,0.06,WeatherDisplay:10.37,2013-05-24 09:35:00,
2013-05-24 05:40:00,60.2,60.2,29.35,North,355,0.0,0.0,100,0.00,CLR,SCT,0.06,WeatherDisplay:10.37,2013-05-24 09:40:00,
2013-05-24 05:45:00,60.2,60.2,29.34,North,355,0.0,0.0,100,0.00,CLR,SCT,0.06,WeatherDisplay:10.37,2013-05-24 09:45:00,
2013-05-24 05:50:00,60.2,60.2,29.35,North,355,0.0,0.0,100,0.00,CLR,SCT,0.06,WeatherDisplay:10.37,2013-05-24 09:50:00,
2013-05-24 05:55:00,60.1,60.1,29.35,North,355,0.0,0.0,100,0.00,CLR,SCT,0.06,WeatherDisplay:10.37,2013-05-24 09:55:00,
2013-05-24 06:00:00,60.1,60.1,29.35,North,355,0.0,0.0,100,0.00,CLR,SCT,0.06,WeatherDisplay:10.37,2013-05-24 10:00:00,
2013-05-24 06:05:00,60.1,60.1,29.35,North,355,0.0,0.0,100,0.00,CLR,SCT,0.06,WeatherDisplay:10.37,2013-05-24 10:05:00,
2013-05-24 06:10:00,60.1,60.1,29.36,North,355,0.0,0.0,100,0.00,CLR,SCT,0.06,WeatherDisplay:10.37,2013-05-24 10:10:00,
2013-05-24 06:15:00,60.2,60.2,29.36,North,355,0.0,0.0,100,0.00,CLR,SCT,0.06,WeatherDisplay:10.37,2013-05-24 10:15:00,
2013-05-24 06:20:00,60.2,60.2,29.36,North,355,0.0,0.0,100,0.00,CLR,SCT,0.06,WeatherDisplay:10.37,2013-05-24 10:20:00,
2013-05-24 06:25:00,60.3,60.3,29.36,North,355,0.0,0.0,100,0.00,CLR,SCT,0.06,WeatherDisplay:10.37,2013-05-24 10:25:00,
2013-05-24 06:30:00,60.2,60.2,29.36,North,355,0.0,0.0,100,0.00,CLR,SCT,0.06,WeatherDisplay:10.37,2013-05-24 10:30:00,
2013-05-24 06:35:00,60.1,60.1,29.36,North,355,0.1,0.0,100,0.00,CLR,SCT,0.06,WeatherDisplay:10.37,2013-05-24 10:35:00,
2013-05-24 06:40:00,59.9,59.6,29.36,North,355,0.0,0.0,99,0.00,CLR,SCT,0.06,WeatherDisplay:10.37,2013-05-24 10:40:00,
2013-05-24 06:45:00,59.8,59.5,29.36,North,355,0.3,0.0,99,0.00,CLR,SCT,0.06,WeatherDisplay:10.37,2013-05-24 10:45:00,
2013-05-24 06:50:00,59.8,59.5,29.36,North,355,0.0,1.1,99,0.00,CLR,SCT,0.06,WeatherDisplay:10.37,2013-05-24 10:50:00,
2013-05-24 06:55:00,59.7,59.7,29.37,North,355,0.0,0.0,100,0.00,CLR,SCT,0.06,WeatherDisplay:10.37,2013-05-24 10:55:00,
2013-05-24 07:00:00,59.6,59.6,29.36,North,355,0.0,0.0,100,0.00,CLR,SCT,0.06,WeatherDisplay:10.37,2013-05-24 11:00:00,
2013-05-24 07:05:00,59.6,59.6,29.36,North,355,0.0,1.1,100,0.00,CLR,SCT,0.06,WeatherDisplay:10.37,2013-05-24 11:05:00,
2013-05-24 07:10:00,59.6,59.6,29.36,North,355,0.0,0.0,100,0.00,CLR,SCT,0.06,WeatherDisplay:10.37,2013-05-24 11:10:00,
2013-05-24 07:15:00,59.7,59.7,29.36,North,355,0.0,0.0,100,0.00,CLR,SCT,0.06,WeatherDisplay:10.37,2013-05-24 11:15:00,
2013-05-24 07:20:00,59.8,59.8,29.36,North,355,0.0,0.0,100,0.00,CLR,SCT,0.06,WeatherDisplay:10.37,2013-05-24 11:20:00,
2013-05-24 07:25:00,59.9,59.9,29.37,North,355,0.0,0.0,100,0.00,CLR,SCT,0.06,WeatherDisplay:10.37,2013-05-24 11:25:00,
2013-05-24 07:30:00,60.0,60.0,29.37,North,355,0.0,0.0,100,0.00,CLR,SCT,0.06,WeatherDisplay:10.37,2013-05-24 11:30:00,
2013-05-24 07:35:00,60.0,60.0,29.37,North,355,0.0,0.0,100,0.00,CLR,SCT,0.06,WeatherDisplay:10.37,2013-05-24 11:35:00,
2013-05-24 07:40:00,60.0,60.0,29.37,North,355,0.0,0.0,100,0.00,CLR,SCT,0.06,WeatherDisplay:10.37,2013-05-24 11:40:00,
2013-05-24 07:45:00,60.0,60.0,29.37,North,355,0.0,0.0,100,0.00,CLR,SCT,0.06,WeatherDisplay:10.37,2013-05-24 11:45:00,
2013-05-24 07:50:00,59.9,59.9,29.37,North,355,0.0,0.0,100,0.00,CLR,SCT,0.06,WeatherDisplay:10.37,2013-05-24 11:50:00,
2013-05-24 07:55:00,60.0,60.0,29.37,North,355,0.0,1.1,100,0.00,CLR,SCT,0.06,WeatherDisplay:10.37,2013-05-24 11:55:00,
2013-05-24 08:00:00,60.0,60.0,29.37,North,355,0.0,0.0,100,0.00,CLR,SCT,0.06,WeatherDisplay:10.37,2013-05-24 12:00:00,
2013-05-24 08:05:00,60.2,60.2,29.37,North,355,0.0,0.0,100,0.00,CLR,SCT,0.06,WeatherDisplay:10.37,2013-05-24 12:05:00,
2013-05-24 08:10:00,60.2,60.2,29.38,North,355,0.0,0.0,100,0.00,CLR,SCT,0.06,WeatherDisplay:10.37,2013-05-24 12:10:00,
2013-05-24 08:15:00,60.2,60.2,29.38,North,355,0.0,0.0,100,0.00,CLR,SCT,0.06,WeatherDisplay:10.37,2013-05-24 12:15:00,
2013-05-24 08:20:00,60.3,60.3,29.38,North,355,0.0,0.0,100,0.00,CLR,SCT,0.06,WeatherDisplay:10.37,2013-05-24 12:20:00,
2013-05-24 08:25:00,60.4,60.4,29.38,North,355,0.0,0.0,100,0.00,CLR,SCT,0.06,WeatherDisplay:10.37,2013-05-24 12:25:00,
2013-05-24 08:30:00,60.4,60.4,29.38,North,355,0.0,1.1,100,0.00,CLR,SCT,0.06,WeatherDisplay:10.37,2013-05-24 12:30:00,
2013-05-24 08:35:00,60.4,60.4,29.38,North,355,0.0,0.0,100,0.00,CLR,SCT,0.06,WeatherDisplay:10.37,2013-05-24 12:35:00,
2013-05-24 08:40:00,60.4,60.4,29.38,North,355,0.0,0.0,100,0.00,CLR,SCT,0.06,WeatherDisplay:10.37,2013-05-24 12:40:00,
2013-05-24 08:45:00,60.5,60.5,29.39,North,355,0.0,0.0,100,0.00,CLR,SCT,0.06,WeatherDisplay:10.37,2013-05-24 12:45:00,
2013-05-24 08:50:00,60.5,60.5,29.39,North,355,0.2,1.1,100,0.00,CLR,SCT,0.06,WeatherDisplay:10.37,2013-05-24 12:50:00,
2013-05-24 08:55:00,60.7,60.7,29.38,North,355,0.1,1.1,100,0.00,CLR,SCT,0.06,WeatherDisplay:10.37,2013-05-24 12:55:00,
2013-05-24 09:00:00,60.8,60.8,29.38,North,355,0.0,0.0,100,0.00,CLR,SCT,0.06,WeatherDisplay:10.37,2013-05-24 13:00:00,
2013-05-24 09:05:00,60.8,60.8,29.38,North,355,0.0,1.1,100,0.00,CLR,SCT,0.06,WeatherDisplay:10.37,2013-05-24 13:05:00,
2013-05-24 09:10:00,60.8,60.8,29.38,North,355,0.0,0.0,100,0.00,CLR,SCT,0.06,WeatherDisplay:10.37,2013-05-24 13:10:00,
2013-05-24 09:15:00,60.9,60.9,29.39,North,355,0.0,0.0,100,0.00,CLR,SCT,0.06,WeatherDisplay:10.37,2013-05-24 13:15:00,
2013-05-24 09:20:00,61.1,61.1,29.39,North,355,0.0,0.0,100,0.00,CLR,SCT,0.06,WeatherDisplay:10.37,2013-05-24 13:20:00,
2013-05-24 09:25:00,61.2,61.2,29.39,North,355,0.0,0.0,100,0.00,CLR,SCT,0.06,WeatherDisplay:10.37,2013-05-24 13:25:00,
2013-05-24 09:30:00,61.2,61.2,29.40,North,355,0.0,0.0,100,0.00,CLR,SCT,0.06,WeatherDisplay:10.37,2013-05-24 13:30:00,
2013-05-24 09:35:00,61.2,61.2,29.40,North,355,0.0,0.0,100,0.00,CLR,SCT,0.06,WeatherDisplay:10.37,2013-05-24 13:35:00,
2013-05-24 09:40:00,61.2,61.2,29.40,North,355,0.0,0.0,100,0.00,CLR,SCT,0.06,WeatherDisplay:10.37,2013-05-24 13:40:00,
2013-05-24 09:45:00,61.1,61.1,29.40,North,355,0.0,0.0,100,0.00,CLR,SCT,0.06,WeatherDisplay:10.37,2013-05-24 13:45:00,
2013-05-24 09:50:00,61.1,61.1,29.39,North,355,0.0,0.0,100,0.00,CLR,SCT,0.06,WeatherDisplay:10.37,2013-05-24 13:50:00,
2013-05-24 09:55:00,61.3,61.3,29.39,North,355,0.0,0.0,100,0.01,RA,SCT,0.07,WeatherDisplay:10.37,2013-05-24 13:55:00,
2013-05-24 10:00:00,61.3,61.3,29.40,North,355,0.0,0.0,100,0.01,RA,SCT,0.07,WeatherDisplay:10.37,2013-05-24 14:00:00,
2013-05-24 10:05:00,61.3,61.3,29.40,North,9,0.3,2.3,100,0.01,,SCT,0.07,WeatherDisplay:10.37,2013-05-24 14:05:00,
2013-05-24 10:10:00,61.3,61.3,29.40,North,9,0.0,0.0,100,0.01,CLR,SCT,0.07,WeatherDisplay:10.37,2013-05-24 14:10:00,
2013-05-24 10:15:00,61.3,61.3,29.40,North,9,0.0,0.0,100,0.01,CLR,SCT,0.07,WeatherDisplay:10.37,2013-05-24 14:15:00,
2013-05-24 10:20:00,61.4,61.4,29.40,North,9,0.0,0.0,100,0.02,RA,SCT,0.08,WeatherDisplay:10.37,2013-05-24 14:20:00,
2013-05-24 10:25:00,61.6,61.6,29.40,North,9,0.0,0.0,100,0.02,RA,SCT,0.08,WeatherDisplay:10.37,2013-05-24 14:25:00,
2013-05-24 10:30:00,61.6,61.6,29.40,NNW,327,0.6,1.1,100,0.02,,SCT,0.08,WeatherDisplay:10.37,2013-05-24 14:30:00,
2013-05-24 10:35:00,60.6,60.6,29.41,North,5,2.0,4.6,100,0.02,CLR,SCT,0.08,WeatherDisplay:10.37,2013-05-24 14:35:00,
2013-05-24 10:40:00,58.3,58.0,29.41,NNW,328,3.7,6.9,99,0.02,CLR,SCT,0.08,WeatherDisplay:10.37,2013-05-24 14:40:00,
2013-05-24 10:45:00,57.0,56.7,29.41,NNW,340,3.3,7.0,99,0.02,CLR,SCT,0.08,WeatherDisplay:10.37,2013-05-24 14:45:00,
2013-05-24 10:50:00,56.2,55.6,29.42,NW,320,1.6,3.5,98,0.02,CLR,SCT,0.08,WeatherDisplay:10.37,2013-05-24 14:50:00,
2013-05-24 10:55:00,55.8,55.2,29.42,NW,319,2.2,5.8,98,0.01,CLR,SCT,0.08,WeatherDisplay:10.37,2013-05-24 14:55:00,
2013-05-24 11:00:00,55.4,55.1,29.42,NW,309,2.4,5.8,99,0.01,CLR,SCT,0.08,WeatherDisplay:10.37,2013-05-24 15:00:00,
2013-05-24 11:05:00,55.2,54.6,29.42,NNW,331,1.2,2.3,98,0.01,CLR,SCT,0.08,WeatherDisplay:10.37,2013-05-24 15:05:00,
2013-05-24 11:10:00,54.9,54.3,29.42,NNE,13,0.5,1.1,98,0.01,CLR,SCT,0.08,WeatherDisplay:10.37,2013-05-24 15:10:00,
2013-05-24 11:15:00,54.9,54.6,29.42,North,9,0.0,2.3,99,0.01,CLR,SCT,0.08,WeatherDisplay:10.37,2013-05-24 15:15:00,
2013-05-24 11:20:00,54.8,54.2,29.43,WNW,290,0.0,1.1,98,0.00,CLR,SCT,0.08,WeatherDisplay:10.37,2013-05-24 15:20:00,
2013-05-24 11:25:00,54.7,54.1,29.43,North,11,1.2,1.2,98,0.00,CLR,SCT,0.08,WeatherDisplay:10.37,2013-05-24 15:25:00,
2013-05-24 11:30:00,54.1,53.5,29.43,NW,314,0.9,1.1,98,0.00,CLR,SCT,0.08,WeatherDisplay:10.37,2013-05-24 15:30:00,
2013-05-24 11:35:00,53.5,52.9,29.43,NNW,339,2.2,3.5,98,0.00,CLR,SCT,0.08,WeatherDisplay:10.37,2013-05-24 15:35:00,
2013-05-24 11:40:00,53.0,52.2,29.43,NW,323,1.3,3.5,97,0.00,CLR,SCT,0.08,WeatherDisplay:10.37,2013-05-24 15:40:00,
2013-05-24 11:45:00,52.9,52.1,29.43,NW,304,2.5,4.6,97,0.00,CLR,SCT,0.08,WeatherDisplay:10.37,2013-05-24 15:45:00,
2013-05-24 11:50:00,52.9,52.1,29.43,WNW,284,1.1,4.6,97,0.00,CLR,SCT,0.08,WeatherDisplay:10.37,2013-05-24 15:50:00,
2013-05-24 11:55:00,52.8,52.0,29.43,WNW,294,1.4,3.5,97,0.00,CLR,SCT,0.08,WeatherDisplay:10.37,2013-05-24 15:55:00,
2013-05-24 12:00:00,52.7,51.9,29.43,NW,315,2.3,5.8,97,0.00,CLR,SCT,0.08,WeatherDisplay:10.37,2013-05-24 16:00:00,
2013-05-24 12:05:00,52.7,51.6,29.43,WNW,301,1.6,3.5,96,0.00,CLR,SCT,0.08,WeatherDisplay:10.37,2013-05-24 16:05:00,
2013-05-24 12:10:00,52.8,51.7,29.43,NW,323,1.3,3.5,96,0.00,CLR,SCT,0.08,WeatherDisplay:10.37,2013-05-24 16:10:00,
2013-05-24 12:15:00,53.3,52.5,29.43,West,279,2.0,4.6,97,0.00,CLR,SCT,0.08,WeatherDisplay:10.37,2013-05-24 16:15:00,
2013-05-24 12:20:00,53.4,52.3,29.43,NW,319,1.5,3.5,96,0.00,CLR,SCT,0.08,WeatherDisplay:10.37,2013-05-24 16:20:00,
2013-05-24 12:25:00,53.3,52.2,29.43,NW,311,2.2,4.0,96,0.00,CLR,SCT,0.08,WeatherDisplay:10.37,2013-05-24 16:25:00,
2013-05-24 12:30:00,53.3,51.9,29.44,NW,326,1.2,3.5,95,0.00,CLR,SCT,0.08,WeatherDisplay:10.37,2013-05-24 16:30:00,
2013-05-24 12:35:00,53.0,51.6,29.44,NW,313,2.0,6.9,95,0.00,CLR,SCT,0.08,WeatherDisplay:10.37,2013-05-24 16:35:00,
2013-05-24 12:40:00,52.6,50.9,29.43,NNW,328,2.9,5.8,94,0.00,CLR,SCT,0.08,WeatherDisplay:10.37,2013-05-24 16:40:00,
2013-05-24 12:45:00,52.4,50.7,29.44,NW,315,2.9,4.6,94,0.00,CLR,SCT,0.08,WeatherDisplay:10.37,2013-05-24 16:45:00,
2013-05-24 12:50:00,52.3,50.6,29.44,NNW,328,2.5,4.6,94,0.00,CLR,SCT,0.08,WeatherDisplay:10.37,2013-05-24 16:50:00,
2013-05-24 12:55:00,52.2,50.5,29.44,NNW,329,1.3,4.6,94,0.00,CLR,SCT,0.08,WeatherDisplay:10.37,2013-05-24 16:55:00,
2013-05-24 13:00:00,52.3,50.6,29.44,North,355,1.6,6.0,94,0.00,CLR,SCT,0.08,WeatherDisplay:10.37,2013-05-24 17:00:00,
2013-05-24 13:05:00,52.3,50.3,29.44,West,278,3.0,5.8,93,0.00,CLR,SCT,0.08,WeatherDisplay:10.37,2013-05-24 17:05:00,
2013-05-24 13:10:00,52.1,49.6,29.44,NW,313,4.7,5.8,91,0.00,CLR,SCT,0.08,WeatherDisplay:10.37,2013-05-24 17:10:00,
2013-05-24 13:15:00,52.1,49.8,29.45,WNW,302,4.3,5.8,92,0.00,CLR,SCT,0.08,WeatherDisplay:10.37,2013-05-24 17:15:00,
2013-05-24 13:20:00,51.9,49.4,29.45,West,277,4.1,6.9,91,0.00,CLR,SCT,0.08,WeatherDisplay:10.37,2013-05-24 17:20:00,
2013-05-24 13:25:00,52.1,49.8,29.45,NNE,15,1.4,6.9,92,0.00,CLR,SCT,0.08,WeatherDisplay:10.37,2013-05-24 17:25:00,
2013-05-24 13:30:00,52.3,50.0,29.45,NE,47,2.4,8.1,92,0.00,CLR,SCT,0.08,WeatherDisplay:10.37,2013-05-24 17:30:00,
2013-05-24 13:35:00,52.3,50.0,29.45,East,83,1.9,5.8,92,0.00,CLR,SCT,0.08,WeatherDisplay:10.37,2013-05-24 17:35:00,
2013-05-24 13:40:00,51.9,49.4,29.45,SW,229,3.3,4.6,91,0.00,CLR,SCT,0.08,WeatherDisplay:10.37,2013-05-24 17:40:00,
2013-05-24 13:45:00,51.5,49.0,29.45,NW,321,2.7,6.9,91,0.00,CLR,SCT,0.08,WeatherDisplay:10.37,2013-05-24 17:45:00,
2013-05-24 13:50:00,51.0,48.5,29.46,NNW,334,2.9,8.1,91,0.00,CLR,SCT,0.08,WeatherDisplay:10.37,2013-05-24 17:50:00,
2013-05-24 13:55:00,50.6,48.1,29.46,NNW,342,2.6,5.8,91,0.00,CLR,SCT,0.08,WeatherDisplay:10.37,2013-05-24 17:55:00,
2013-05-24 14:00:00,50.4,47.9,29.46,ESE,117,2.8,4.6,91,0.00,CLR,SCT,0.08,WeatherDisplay:10.37,2013-05-24 18:00:00,
2013-05-24 14:05:00,50.3,47.8,29.47,WNW,294,2.0,5.8,91,0.00,CLR,SCT,0.08,WeatherDisplay:10.37,2013-05-24 18:05:00,
2013-05-24 14:10:00,50.1,47.9,29.47,NW,326,2.5,4.6,92,0.00,CLR,SCT,0.08,WeatherDisplay:10.37,2013-05-24 18:10:00,
2013-05-24 14:15:00,49.9,47.4,29.47,North,350,5.2,6.9,91,0.00,CLR,SCT,0.08,WeatherDisplay:10.37,2013-05-24 18:15:00,
2013-05-24 14:20:00,49.8,47.6,29.47,NW,317,1.7,3.5,92,0.00,CLR,SCT,0.08,WeatherDisplay:10.37,2013-05-24 18:20:00,
2013-05-24 14:26:00,49.7,47.2,29.47,North,360,1.4,3.5,91,0.00,CLR,SCT,0.08,WeatherDisplay:10.37,2013-05-24 18:26:00,
2013-05-24 14:31:00,49.7,47.5,29.47,West,281,1.5,5.8,92,0.00,CLR,SCT,0.08,WeatherDisplay:10.37,2013-05-24 18:31:00,
2013-05-24 14:36:00,49.4,47.2,29.47,North,350,2.6,8.1,92,0.00,CLR,SCT,0.08,WeatherDisplay:10.37,2013-05-24 18:36:00,
2013-05-24 14:41:00,49.2,47.0,29.47,NNW,331,4.0,6.9,92,0.00,CLR,SCT,0.08,WeatherDisplay:10.37,2013-05-24 18:41:00,
2013-05-24 14:46:00,48.9,46.7,29.46,North,5,2.7,4.6,92,0.00,CLR,SCT,0.08,WeatherDisplay:10.37,2013-05-24 18:46:00,
2013-05-24 14:51:00,48.8,46.9,29.47,WNW,287,3.3,5.8,93,0.00,CLR,SCT,0.08,WeatherDisplay:10.37,2013-05-24 18:51:00,
2013-05-24 14:56:00,48.6,47.0,29.46,NW,311,2.2,4.0,94,0.00,CLR,SCT,0.08,WeatherDisplay:10.37,2013-05-24 18:56:00,
2013-05-24 15:01:00,48.5,46.9,29.47,NNW,333,2.7,5.8,94,0.00,CLR,SCT,0.08,WeatherDisplay:10.37,2013-05-24 19:01:00,
2013-05-24 15:06:00,48.3,46.7,29.46,NNW,344,4.6,9.2,94,0.00,CLR,SCT,0.08,WeatherDisplay:10.37,2013-05-24 19:06:00,
2013-05-24 15:11:00,48.0,46.6,29.46,NNW,338,2.5,4.6,95,0.00,CLR,SCT,0.08,WeatherDisplay:10.37,2013-05-24 19:11:00,
2013-05-24 15:16:00,47.9,46.5,29.46,WNW,301,1.8,4.6,95,0.00,CLR,SCT,0.08,WeatherDisplay:10.37,2013-05-24 19:16:00,
2013-05-24 15:21:00,47.7,46.3,29.47,NW,306,4.2,4.6,95,0.00,CLR,SCT,0.08,WeatherDisplay:10.37,2013-05-24 19:21:00,
2013-05-24 15:26:00,47.6,46.5,29.47,NW,321,3.1,4.6,96,0.00,CLR,SCT,0.08,WeatherDisplay:10.37,2013-05-24 19:26:00,
2013-05-24 15:31:00,47.5,46.4,29.47,WNW,299,3.4,4.6,96,0.00,CLR,SCT,0.08,WeatherDisplay:10.37,2013-05-24 19:31:00,
2013-05-24 15:36:00,47.3,46.2,29.47,NW,313,1.6,4.0,96,0.00,CLR,SCT,0.08,WeatherDisplay:10.37,2013-05-24 19:36:00,
2013-05-24 15:41:00,47.3,46.2,29.47,WNW,300,2.5,4.6,96,0.01,RA,SCT,0.09,WeatherDisplay:10.37,2013-05-24 19:41:00,
2013-05-24 15:46:00,47.2,46.1,29.47,North,350,1.4,3.0,96,0.02,RA,SCT,0.10,WeatherDisplay:10.37,2013-05-24 19:46:00,
2013-05-24 15:51:00,47.2,46.1,29.47,NNW,347,0.6,2.3,96,0.02,RA,SCT,0.10,WeatherDisplay:10.37,2013-05-24 19:51:00,
2013-05-24 15:56:00,47.0,45.9,29.47,NW,317,2.6,4.6,96,0.02,CLR,SCT,0.10,WeatherDisplay:10.37,2013-05-24 19:56:00,
2013-05-24 16:01:00,46.8,46.0,29.47,North,350,2.3,6.0,97,0.02,CLR,SCT,0.10,WeatherDisplay:10.37,2013-05-24 20:01:00,
2013-05-24 16:06:00,46.8,46.0,29.47,ESE,110,3.2,6.9,97,0.03,RA,SCT,0.11,WeatherDisplay:10.37,2013-05-24 20:06:00,
2013-05-24 16:11:00,46.7,45.9,29.47,NW,321,3.5,4.6,97,0.03,RA,SCT,0.11,WeatherDisplay:10.37,2013-05-24 20:11:00,
2013-05-24 16:16:00,46.7,45.9,29.47,NNW,335,2.7,5.0,97,0.03,CLR,SCT,0.11,WeatherDisplay:10.37,2013-05-24 20:16:00,
2013-05-24 16:21:00,46.5,45.7,29.47,North,350,3.8,4.6,97,0.03,CLR,SCT,0.11,WeatherDisplay:10.37,2013-05-24 20:21:00,
2013-05-24 16:26:00,46.5,45.7,29.48,NW,309,1.7,4.0,97,0.03,CLR,SCT,0.11,WeatherDisplay:10.37,2013-05-24 20:26:00,
2013-05-24 16:31:00,46.5,45.7,29.48,West,267,2.5,3.5,97,0.03,CLR,SCT,0.11,WeatherDisplay:10.37,2013-05-24 20:31:00,
2013-05-24 16:36:00,46.6,45.8,29.48,WNW,302,2.7,4.6,97,0.03,CLR,SCT,0.11,WeatherDisplay:10.37,2013-05-24 20:36:00,
2013-05-24 16:41:00,46.6,45.8,29.48,NW,315,1.5,2.3,97,0.02,CLR,SCT,0.11,WeatherDisplay:10.37,2013-05-24 20:41:00,
2013-05-24 16:46:00,46.7,46.2,29.48,NNE,27,0.9,2.3,98,0.01,CLR,SCT,0.11,WeatherDisplay:10.37,2013-05-24 20:46:00,
2013-05-24 16:51:00,46.6,46.1,29.48,WNW,283,3.5,5.8,98,0.02,RA,SCT,0.12,WeatherDisplay:10.37,2013-05-24 20:51:00,
2013-05-24 16:56:00,46.5,46.0,29.48,NW,326,1.8,4.6,98,0.02,RA,SCT,0.12,WeatherDisplay:10.37,2013-05-24 20:56:00,
2013-05-24 17:01:00,46.3,45.8,29.49,NNW,338,4.5,8.1,98,0.02,,SCT,0.12,WeatherDisplay:10.37,2013-05-24 21:01:00,
2013-05-24 17:06:00,46.2,45.4,29.48,NW,312,5.2,6.9,97,0.01,CLR,SCT,0.12,WeatherDisplay:10.37,2013-05-24 21:06:00,
2013-05-24 17:11:00,46.1,45.3,29.49,North,355,3.7,6.9,97,0.02,RA,SCT,0.13,WeatherDisplay:10.37,2013-05-24 21:11:00,
2013-05-24 17:16:00,46.1,45.3,29.49,NNW,340,4.7,9.2,97,0.02,RA,SCT,0.13,WeatherDisplay:10.37,2013-05-24 21:16:00,
2013-05-24 17:21:00,46.1,45.6,29.49,North,350,2.5,4.6,98,0.02,CLR,SCT,0.13,WeatherDisplay:10.37,2013-05-24 21:21:00,
2013-05-24 17:26:00,46.1,45.6,29.49,NW,304,1.6,3.5,98,0.03,RA,SCT,0.14,WeatherDisplay:10.37,2013-05-24 21:26:00,
2013-05-24 17:31:00,46.1,45.6,29.49,NW,324,3.2,6.9,98,0.04,RA,SCT,0.15,WeatherDisplay:10.37,2013-05-24 21:31:00,
2013-05-24 17:36:00,46.0,45.5,29.50,NW,323,5.0,5.8,98,0.04,RA,SCT,0.15,WeatherDisplay:10.37,2013-05-24 21:36:00,
2013-05-24 17:41:00,45.9,45.4,29.50,WNW,296,3.0,5.8,98,0.05,RA,SCT,0.16,WeatherDisplay:10.37,2013-05-24 21:41:00,
2013-05-24 17:46:00,45.7,45.2,29.50,NNE,14,4.4,9.2,98,0.05,RA,SCT,0.16,WeatherDisplay:10.37,2013-05-24 21:46:00,
2013-05-24 17:51:00,45.6,45.1,29.50,WNW,301,2.2,4.6,98,0.05,RA,SCT,0.17,WeatherDisplay:10.37,2013-05-24 21:51:00,
2013-05-24 17:56:00,45.6,45.1,29.50,NNE,13,3.4,7.0,98,0.06,RA,SCT,0.18,WeatherDisplay:10.37,2013-05-24 21:56:00,
2013-05-24 18:01:00,45.6,45.1,29.49,NNW,341,4.7,10.4,98,0.07,RA,SCT,0.19,WeatherDisplay:10.37,2013-05-24 22:01:00,
2013-05-24 18:06:00,45.5,45.0,29.49,NNW,338,1.9,3.5,98,0.07,RA,SCT,0.19,WeatherDisplay:10.37,2013-05-24 22:06:00,
2013-05-24 18:11:00,45.6,45.1,29.49,SSE,149,2.7,3.5,98,0.07,RA,SCT,0.20,WeatherDisplay:10.37,2013-05-24 22:11:00,
2013-05-24 18:16:00,45.4,44.9,29.49,NNW,348,1.8,3.5,98,0.08,RA,SCT,0.21,WeatherDisplay:10.37,2013-05-24 22:16:00,
2013-05-24 18:21:00,45.4,44.9,29.49,NW,319,2.7,5.8,98,0.08,RA,SCT,0.21,WeatherDisplay:10.37,2013-05-24 22:21:00,
2013-05-24 18:26:00,45.4,44.9,29.49,NW,313,5.3,10.4,98,0.07,CLR,SCT,0.21,WeatherDisplay:10.37,2013-05-24 22:26:00,
2013-05-24 18:31:00,45.5,45.0,29.49,NW,311,3.1,3.5,98,0.06,CLR,SCT,0.21,WeatherDisplay:10.37,2013-05-24 22:31:00,
2013-05-24 18:36:00,45.5,45.0,29.50,NNW,348,2.4,6.0,98,0.06,CLR,SCT,0.21,WeatherDisplay:10.37,2013-05-24 22:36:00,
2013-05-24 18:41:00,45.3,44.8,29.50,NW,308,1.7,3.5,98,0.05,CLR,SCT,0.21,WeatherDisplay:10.37,2013-05-24 22:41:00,
2013-05-24 18:46:00,45.2,44.7,29.50,SW,233,3.9,6.9,98,0.05,CLR,SCT,0.21,WeatherDisplay:10.37,2013-05-24 22:46:00,
2013-05-24 18:51:00,45.1,44.6,29.50,NW,325,2.5,3.5,98,0.04,CLR,SCT,0.21,WeatherDisplay:10.37,2013-05-24 22:51:00,
2013-05-24 18:56:00,45.3,44.8,29.50,NW,318,1.8,4.6,98,0.03,CLR,SCT,0.21,WeatherDisplay:10.37,2013-05-24 22:56:00,
2013-05-24 19:01:00,45.1,44.6,29.51,WNW,297,3.1,8.1,98,0.02,CLR,SCT,0.21,WeatherDisplay:10.37,2013-05-24 23:01:00,
2013-05-24 19:06:00,45.0,44.5,29.51,NW,319,2.7,5.8,98,0.02,CLR,SCT,0.21,WeatherDisplay:10.37,2013-05-24 23:06:00,
2013-05-24 19:11:00,45.0,44.5,29.52,WNW,283,3.3,5.8,98,0.01,CLR,SCT,0.21,WeatherDisplay:10.37,2013-05-24 23:11:00,
2013-05-24 19:16:00,44.9,44.4,29.52,NW,306,2.4,6.9,98,0.00,CLR,SCT,0.21,WeatherDisplay:10.37,2013-05-24 23:16:00,
2013-05-24 19:21:00,44.7,43.9,29.52,North,5,5.4,6.9,97,0.00,CLR,SCT,0.21,WeatherDisplay:10.37,2013-05-24 23:21:00,
2013-05-24 19:26:00,44.7,43.9,29.52,West,276,1.3,3.5,97,0.00,CLR,SCT,0.21,WeatherDisplay:10.37,2013-05-24 23:26:00,
2013-05-24 19:31:00,44.7,43.9,29.52,NW,321,3.6,5.8,97,0.00,CLR,SCT,0.21,WeatherDisplay:10.37,2013-05-24 23:31:00,
2013-05-24 19:36:00,44.6,43.8,29.53,NNW,337,4.4,8.1,97,0.00,CLR,SCT,0.21,WeatherDisplay:10.37,2013-05-24 23:36:00,
2013-05-24 19:41:00,44.7,43.9,29.53,WNW,284,1.7,3.5,97,0.01,RA,SCT,0.22,WeatherDisplay:10.37,2013-05-24 23:41:00,
2013-05-24 19:46:00,44.7,44.2,29.53,NW,325,0.8,2.3,98,0.01,RA,SCT,0.22,WeatherDisplay:10.37,2013-05-24 23:46:00,
2013-05-24 19:51:00,44.6,44.1,29.52,NE,35,3.3,8.1,98,0.02,RA,SCT,0.23,WeatherDisplay:10.37,2013-05-24 23:51:00,
2013-05-24 19:56:00,44.4,43.6,29.52,NNW,342,2.9,6.9,97,0.03,RA,SCT,0.24,WeatherDisplay:10.37,2013-05-24 23:56:00,
2013-05-24 20:01:00,44.3,43.8,29.53,WNW,295,2.8,4.6,98,0.04,RA,SCT,0.25,WeatherDisplay:10.37,2013-05-25 00:01:00,
2013-05-24 20:06:00,44.2,43.7,29.53,West,265,2.8,5.8,98,0.04,RA,SCT,0.25,WeatherDisplay:10.37,2013-05-25 00:06:00,
2013-05-24 20:11:00,44.1,43.6,29.52,NW,317,2.0,3.5,98,0.04,,SCT,0.25,WeatherDisplay:10.37,2013-05-25 00:11:00,
2013-05-24 20:16:00,44.1,43.6,29.53,NNW,348,3.1,4.6,98,0.04,CLR,SCT,0.25,WeatherDisplay:10.37,2013-05-25 00:16:00,
2013-05-24 20:21:00,44.1,43.6,29.53,NW,310,1.1,2.3,98,0.04,CLR,SCT,0.25,WeatherDisplay:10.37,2013-05-25 00:21:00,
2013-05-24 20:26:00,44.1,43.6,29.53,NNW,337,3.4,6.9,98,0.04,CLR,SCT,0.25,WeatherDisplay:10.37,2013-05-25 00:26:00,
2013-05-24 20:31:00,44.1,43.6,29.54,SSE,160,1.9,3.5,98,0.04,CLR,SCT,0.25,WeatherDisplay:10.37,2013-05-25 00:31:00,
2013-05-24 20:36:00,44.1,43.6,29.54,NW,306,1.6,3.5,98,0.04,CLR,SCT,0.25,WeatherDisplay:10.37,2013-05-25 00:36:00,
2013-05-24 20:41:00,44.3,43.8,29.54,West,279,1.4,3.5,98,0.03,CLR,SCT,0.25,WeatherDisplay:10.37,2013-05-25 00:41:00,
2013-05-24 20:46:00,44.2,43.7,29.54,NW,304,1.5,3.0,98,0.03,CLR,SCT,0.25,WeatherDisplay:10.37,2013-05-25 00:46:00,
2013-05-24 20:51:00,44.0,43.5,29.55,NW,304,1.7,6.9,98,0.02,CLR,SCT,0.25,WeatherDisplay:10.37,2013-05-25 00:51:00,
2013-05-24 20:56:00,44.0,43.5,29.55,NW,306,6.0,10.4,98,0.01,CLR,SCT,0.25,WeatherDisplay:10.37,2013-05-25 00:56:00,
2013-05-24 21:01:00,43.9,43.4,29.54,NNW,337,4.4,8.1,98,0.00,CLR,SCT,0.25,WeatherDisplay:10.37,2013-05-25 01:01:00,
2013-05-24 21:06:00,43.8,43.3,29.54,NE,46,2.7,4.6,98,0.01,RA,SCT,0.26,WeatherDisplay:10.37,2013-05-25 01:06:00,
2013-05-24 21:11:00,43.7,42.9,29.54,NNW,338,1.4,3.5,97,0.01,RA,SCT,0.26,WeatherDisplay:10.37,2013-05-25 01:11:00,
2013-05-24 21:16:00,43.7,42.9,29.54,NW,323,2.1,9.0,97,0.01,,SCT,0.26,WeatherDisplay:10.37,2013-05-25 01:16:00,
2013-05-24 21:21:00,43.6,42.8,29.54,NW,324,2.7,5.8,97,0.01,CLR,SCT,0.26,WeatherDisplay:10.37,2013-05-25 01:21:00,
2013-05-24 21:26:00,43.5,42.7,29.53,NE,44,6.9,11.5,97,0.02,RA,SCT,0.27,WeatherDisplay:10.37,2013-05-25 01:26:00,
2013-05-24 21:31:00,43.4,42.6,29.52,WSW,254,3.9,6.9,97,0.02,RA,SCT,0.27,WeatherDisplay:10.37,2013-05-25 01:31:00,
2013-05-24 21:36:00,43.3,42.5,29.51,NNW,333,2.2,3.5,97,0.02,CLR,SCT,0.27,WeatherDisplay:10.37,2013-05-25 01:36:00,
2013-05-24 21:41:00,43.3,42.5,29.51,NNW,331,2.6,3.5,97,0.02,CLR,SCT,0.27,WeatherDisplay:10.37,2013-05-25 01:41:00,
2013-05-24 21:46:00,43.3,42.5,29.51,NNW,342,3.0,5.8,97,0.02,CLR,SCT,0.27,WeatherDisplay:10.37,2013-05-25 01:46:00,
2013-05-24 21:51:00,43.2,42.4,29.51,WSW,243,2.4,8.0,97,0.02,CLR,SCT,0.27,WeatherDisplay:10.37,2013-05-25 01:51:00,
2013-05-24 21:56:00,43.2,42.4,29.52,NW,319,2.5,4.6,97,0.02,CLR,SCT,0.27,WeatherDisplay:10.37,2013-05-25 01:56:00,
2013-05-24 22:01:00,43.3,42.5,29.51,WSW,245,2.1,4.6,97,0.02,CLR,SCT,0.27,WeatherDisplay:10.37,2013-05-25 02:01:00,
2013-05-24 22:06:00,43.2,42.4,29.51,NNW,331,4.5,10.4,97,0.01,CLR,SCT,0.27,WeatherDisplay:10.37,2013-05-25 02:06:00,
2013-05-24 22:11:00,43.1,42.3,29.52,NNW,331,3.3,4.6,97,0.01,CLR,SCT,0.27,WeatherDisplay:10.37,2013-05-25 02:11:00,
2013-05-24 22:16:00,43.0,42.2,29.53,NNW,337,5.2,5.8,97,0.01,CLR,SCT,0.27,WeatherDisplay:10.37,2013-05-25 02:16:00,
2013-05-24 22:21:00,43.1,42.0,29.54,NW,320,2.3,4.6,96,0.01,CLR,SCT,0.27,WeatherDisplay:10.37,2013-05-25 02:21:00,
2013-05-24 22:26:00,43.1,42.0,29.55,WNW,294,2.9,6.0,96,0.00,CLR,SCT,0.27,WeatherDisplay:10.37,2013-05-25 02:26:00,
2013-05-24 22:31:00,43.1,42.0,29.55,NNW,331,2.9,4.6,96,0.00,CLR,SCT,0.27,WeatherDisplay:10.37,2013-05-25 02:31:00,
2013-05-24 22:36:00,43.1,42.0,29.56,NW,318,0.4,2.3,96,0.00,CLR,SCT,0.27,WeatherDisplay:10.37,2013-05-25 02:36:00,
2013-05-24 22:41:00,43.1,42.0,29.57,West,275,1.1,3.5,96,0.00,CLR,SCT,0.27,WeatherDisplay:10.37,2013-05-25 02:41:00,
2013-05-24 22:46:00,43.1,42.0,29.57,NNE,19,2.3,5.8,96,0.00,CLR,SCT,0.27,WeatherDisplay:10.37,2013-05-25 02:46:00,
2013-05-24 22:51:00,43.2,42.1,29.56,NW,322,2.3,4.6,96,0.00,CLR,SCT,0.27,WeatherDisplay:10.37,2013-05-25 02:51:00,
2013-05-24 22:56:00,43.1,42.0,29.55,NNW,347,2.0,3.5,96,0.00,CLR,SCT,0.27,WeatherDisplay:10.37,2013-05-25 02:56:00,
2013-05-24 23:01:00,43.1,42.0,29.54,SSE,163,5.1,9.2,96,0.00,CLR,SCT,0.27,WeatherDisplay:10.37,2013-05-25 03:01:00,
2013-05-24 23:06:00,43.1,42.0,29.54,NNW,327,3.1,5.8,96,0.01,RA,SCT,0.28,WeatherDisplay:10.37,2013-05-25 03:06:00,
2013-05-24 23:11:00,43.1,42.0,29.53,NW,325,3.9,4.6,96,0.01,RA,SCT,0.28,WeatherDisplay:10.37,2013-05-25 03:11:00,
2013-05-24 23:16:00,43.1,42.0,29.53,North,5,2.7,5.8,96,0.01,,SCT,0.28,WeatherDisplay:10.37,2013-05-25 03:16:00,
2013-05-24 23:21:00,43.0,41.9,29.53,NW,321,2.1,3.5,96,0.01,CLR,SCT,0.28,WeatherDisplay:10.37,2013-05-25 03:21:00,
2013-05-24 23:26:00,43.0,42.2,29.51,NNW,327,2.8,4.6,97,0.01,CLR,SCT,0.28,WeatherDisplay:10.37,2013-05-25 03:26:00,
2013-05-24 23:31:00,42.9,42.1,29.50,NNE,25,2.4,5.0,97,0.01,CLR,SCT,0.28,WeatherDisplay:10.37,2013-05-25 03:31:00,
2013-05-24 23:36:00,42.8,42.0,29.52,South,169,0.3,2.0,97,0.01,CLR,SCT,0.28,WeatherDisplay:10.37,2013-05-25 03:36:00,
2013-05-24 23:41:00,42.9,42.1,29.54,ESE,109,4.3,6.9,97,0.02,RA,SCT,0.29,WeatherDisplay:10.37,2013-05-25 03:41:00,
2013-05-24 23:46:00,42.9,42.1,29.55,West,278,0.1,1.1,97,0.02,RA,SCT,0.29,WeatherDisplay:10.37,2013-05-25 03:46:00,
2013-05-24 23:51:00,42.9,42.1,29.55,NW,304,0.4,1.1,97,0.02,CLR,SCT,0.29,WeatherDisplay:10.37,2013-05-25 03:51:00,
2013-05-24 23:56:00,42.8,42.0,29.53,North,355,3.6,6.9,97,0.02,CLR,SCT,0.29,WeatherDisplay:10.37,2013-05-25 03:56:00,